STARLINK-11588, 63319

Orbit data source: Space-Track

STARLINK-11588, 63319 is a payload satellite owned by SpaceX/Seattle (US) in LEO that was launched on Tue, 18 Mar 2025 UTC via an FALCON 9 launch vehicle from the Air Force Eastern Test Range (AFETR). Payload-class satellites include a variety of spacecraft equipped with specific instruments for various scientific and technological missions. These include communications satellites like Starlink; space stations such as the ISS; scientific satellites like the Hubble; Earth observation satellites from companies like Planet Labs, Umbra, and HawkEye 360; GPS; miniature CubeSats for education and research; and military/defense satellites.

Loading next visibility...
Identifier
63319, 2025-057N
Orbit
LEO
Country
Flag of USUS
Related business
Manufacturer
SpaceX/Seattle
Mission
Operational Commercial Communications
Bus & Motor
STARLINK V2MD, Unknown motor
Mass
960 kg wet, ~910 kg dry
Launch date (UTC)
2025-03-18 (8 months ago)
Launch vehicle
FALCON 9
Launch site
Air Force Eastern Test Range (AFETR)
Object type
Payload
Rocket body
Debris
Shape & HBR
Box + 2 Pan, 18.1 m
Radar Cross Section
36.964 m², Large (>1 m²)

Expand to show TLE details & history
Last TLE update: 12 hours ago

TLE from 12 hours ago
0 STARLINK-11588
1 63319U 25057N   25310.24217116  .00396231  00000-0  29355-2 0  9996
2 63319  42.9995 288.5275 0000688 213.5095 146.5729 15.70928637 37761
Epoch: 2025-11-06T05:48Z
TLE epoch observation values (Epoch: 2025-11-06T05:48:43.588Z)
Latitude
-0.00002°
Longitude
155.64256°
Altitude
356.399 km
Speed
7.697 km/s
True Right ascension
19h 14m 06s
True Declination
0° 00' 00"
Sunlit
Object was in daylight at epoch
Visualization orbit readout
Latitude
Unknown
Longitude
Unknown
Altitude
Unknown
Speed
Unknown
Apparent Right ascension
Unknown
Apparent Declination
Unknown
Sunlit
N/A
Visualization observer readout
Local Sidereal Time
14:06:22
Azimuth
Unknown
Elevation
Unknown
Doppler factor
Unknown
Orbital elements
Apogee altitude
358.687 km
Perigee altitude
357.76 km
Semi-major axis
6,736.36 km
Eccentricity
0.00007
Inclination
42.9995°
RAAN
288.5275°
Arg. of periapsis
213.5095°
True anomaly
146.57724°
Mean anomaly
146.5729°
Eccentric anomaly
146.57507°
Mean motion
3.92559 °/min
Orbital period
91.71 mins
BSTAR
0.0029355
Loading maneuver chart data...
Computing Atmospheric mass density...
Loading historical data...
Loading historical data...
Loading historical data...
Loading historical data...
Loading historical data...
Loading historical data...
Loading historical data...

Documentation

Showing up to 5 results
|